User: anonymous   Login
Location: Brno
(49.2000°N, 16.6330°E)
Time: 22:28:46
(UTC+01:00)
Language:

Cosmos 332 Rocket - Orbit

View from above orbital plane
View from above orbital plane
View from above satellite
View from above satellite

Ground track
Ground track

The orbit data is extracted from the following two-line orbital elements,

1 04370U 70028B   14304.49821003  .00000775  00000-0  17026-3 0  7840
2 04370 074.0387 119.0484 0016847 281.2724 112.0365 14.59242080871968
Epoch (UTC): 31 October 2014 11:57:25
Eccentricity: 0.0016847
inclination: 74.0387°
perigee height: 684 km
apogee height: 707 km
right ascension of ascending node: 119.0484°
argument of perigee: 281.2724°
revolutions per day: 14.59242080
mean anomaly at epoch: 112.0365°
orbit number at epoch: 87196

The dashed part of the orbit path shows where the satellite is in the earth's shadow,  

DLR